Simultaneous Nadir Overpasses (SNOs) Predictions

Prediction of SNOs between GOES-15 and METOP-B Satellite Orbit:

Table of predicted SNOs for the next 14.0 days since TLE Epoch: 9/14/2024
Index Date Time (GOES-15) GOES-15 Lat,Lon METOP-B Lat,Lon Distance(km) Time Diff (sec)
1 09/14/2024 17:02:03 0.23, 61.44 0.87, 64.41 338.20 80
2 09/16/2024 05:18:14 -0.26, 61.30 0.08, 59.82 168.44 80
3 09/17/2024 05:00:14 -0.24, 61.30 -1.04, 64.82 401.35 80
4 09/18/2024 17:16:32 0.27, 61.42 0.00, 60.22 136.82 80
5 09/19/2024 16:58:31 0.25, 61.41 1.07, 65.22 432.71 80
6 09/21/2024 05:14:41 -0.27, 61.29 -0.10, 60.64 74.34 80
7 09/22/2024 04:56:41 -0.26, 61.29 -1.24, 65.63 495.17 80
8 09/23/2024 17:12:58 0.28, 61.41 0.19, 61.03 43.45 80
9 09/26/2024 05:13:46 -0.28, 61.30 -0.30, 61.46 17.69 80
